CAPE
1089 1024 1340 1580 1328 1043 791 801 1032 923 832 797 856 825 841 692 783 732 621 502 479 451 462 450 336 266 440 263 104 278 502 906 960 1448 1324 1340 1190 1167 1458 1195 1252 1344
978 1103 786 735 624 794 1104 1074 988 924 892 937 946 874 593 575 563 486 453 487 390 428 301 247 288 330 447 299 394 572 561 841 796 823 1251 1182 1263 1294 1352 1556 1345 1242
1083 909 606 692 878 839 1348 1386 1086 1100 879 1074 1045 769 565 582 651 547 528 390 360 308 286 305 370 328 409 350 549 452 606 670 519 682 696 648 820 1128 1168 1369 1499 1197
1200 1110 898 1138 1428 1382 1343 1112 1012 693 583 641 705 716 581 583 742 626 490 430 279 294 366 396 379 308 146 212 584 491 486 529 570 721 516 320 683 728 918 1075 1288 1088
1000 1044 1098 1335 1455 1172 916 777 652 556 522 639 768 656 501 622 502 342 290 314 273 270 327 328 308 372 188 162 290 322 465 413 277 326 342 537 480 578 792 967 998 1057
984 903 867 1133 1087 830 757 739 635 660 639 654 782 602 552 531 382 167 114 198 251 223 288 247 195 44 97 206 260 204 98 123 284 60 5 80 76 201 291 778 1046 944
746 816 1073 859 793 735 706 668 560 526 629 658 549 601 447 492 316 80 37 48 106 110 156 252 77 90 196 114 136 49 237 96 0 0 0 16 44 200 160 474 503 699
672 619 493 382 503 600 654 767 602 572 578 391 497 407 362 414 241 164 64 25 4 30 94 112 71 82 60 45 60 45 95 0 0 0 4 0 0 66 247 352 620 609
549 618 716 830 744 862 776 614 639 540 354 426 525 434 394 506 237 168 42 9 2 0 0 26 94 148 51 123 200 13 0 0 0 119 0 2 62 7 19 234 546 913
588 644 582 643 728 808 877 626 604 448 285 325 424 348 411 460 149 81 38 35 0 0 0 0 129 178 76 78 1 0 0 0 33 8 0 13 130 54 26 242 472 735
668 393 472 787 695 693 805 713 626 430 293 303 477 434 349 346 112 142 78 4 7 0 0 0 31 58 75 12 0 0 0 8 3 0 36 17 114 168 312 202 382 562
446 423 543 965 691 758 658 661 585 376 360 200 206 300 308 307 126 153 78 23 0 0 0 0 0 10 0 0 0 0 12 13 35 38 19 0 0 25 141 382 414 356
482 529 1203 1566 854 767 760 691 577 367 260 155 144 269 237 385 216 244 109 34 0 0 0 0 0 0 8 5 0 3 22 111 6 53 42 11 14 34 1 39 124 264
608 1065 1182 1114 897 657 576 532 526 369 318 223 239 307 168 149 106 155 16 59 0 0 0 0 4 2 14 32 2 62 100 9 120 52 140 24 90 80 183 90 55 7
910 867 870 898 746 586 507 422 323 415 364 230 362 198 105 117 95 56 26 17 0 0 0 25 75 4 1 0 20 128 110 169 64 254 106 231 256 328 178 280 182 587
674 599 602 654 572 622 720 525 453 373 259 167 161 55 75 44 16 23 3 4 1 9 173 104 0 0 0 0 0 58 120 154 237 201 268 223 329 440 281 210 374 442
491 464 339 423 400 381 297 324 344 427 453 123 69 38 61 13 31 0 10 108 82 166 187 0 0 1 0 0 0 0 166 571 267 211 186 452 248 448 396 395 441 543
293 326 428 342 351 284 214 47 143 211 214 289 340 282 207 387 368 132 124 185 145 179 95 0 0 0 0 0 0 0 0 186 306 442 498 339 305 382 319 262 219 354
132 294 303 366 299 248 176 6 24 19 30 121 226 288 310 265 156 82 60 142 342 105 6 0 0 0 0 0 0 0 0 31 87 240 421 478 515 368 140 269 39 10
218 137 221 230 268 225 130 43 3 0 0 0 117 125 174 200 69 74 83 166 180 118 97 10 0 0 0 0 0 0 0 0 79 254 505 638 382 205 118 129 290 337
170 195 188 220 221 204 152 86 5 0 1 3 60 339 356 217 127 50 53 61 47 4 0 0 0 0 0 0 0 0 0 0 100 303 408 483 779 556 227 206 282 252
40 66 101 142 147 156 124 47 31 28 4 0 48 106 317 365 176 100 75 106 84 46 0 43 40 13 0 0 0 0 0 0 34 158 366 530 586 821 291 194 119 134
19 21 19 26 64 83 26 10 2 8 4 3 14 32 236 220 173 221 229 183 134 112 116 154 113 30 13 10 0 0 0 0 30 131 291 493 428 328 258 150 65 57
7 13 13 15 12 34 32 7 2 7 34 119 56 10 40 111 140 130 148 115 69 68 98 102 80 70 56 0 0 0 19 0 0 18 104 422 221 161 142 83 4 1
2 1 3 0 1 1 1 0 4 7 6 8 4 32 42 67 59 72 62 54 48 52 61 69 72 82 70 61 28 26 15 12 6 26 69 133 79 120 128 57 5 0
6 3 5 5 4 4 0 0 1 8 14 16 9 18 32 28 5 11 3 33 48 54 64 70 78 76 69 62 12 4 1 2 3 24 24 3 3 3 5 74 42 0
Wind_Speed
24 22 21 23 23 22 21 19 20 22 22 23 21 19 19 19 17 21 19 17 17 17 17 17 16 14 16 16 13 16 17 18 14 14 13 15 16 15 17 17 17 18
23 22 23 23 23 21 19 18 20 23 24 24 22 21 22 21 21 21 18 17 17 18 18 17 15 15 15 14 13 19 16 14 14 14 13 16 16 16 18 18 18 19
22 23 23 23 22 20 20 23 24 25 25 24 24 24 23 21 20 18 16 16 18 18 18 16 16 14 16 15 15 16 15 14 15 14 15 17 17 18 19 20 19 20
23 22 23 22 21 22 26 27 26 27 28 26 25 24 22 20 20 19 19 20 19 18 16 17 15 15 17 14 16 16 14 15 16 17 18 17 18 21 20 20 20 19
25 23 23 21 21 26 28 28 28 29 27 24 24 23 21 21 22 21 21 20 19 18 16 15 15 18 18 15 17 17 17 21 18 17 19 19 21 21 20 20 20 19
26 24 21 20 23 26 27 28 29 28 26 23 22 21 20 20 22 22 20 19 18 17 15 14 16 nan nan 18 19 19 nan 19 17 nan nan nan nan 19 20 20 20 18
26 23 22 24 23 25 25 26 26 26 25 23 22 22 20 20 23 nan nan nan 17 15 13 13 nan nan 17 18 19 nan 17 nan nan nan nan nan nan 19 23 21 20 22
23 24 25 19 22 22 22 22 24 24 24 23 23 25 22 22 25 22 nan nan nan nan nan 14 nan nan nan nan nan nan nan nan nan nan nan nan nan nan 23 23 23 26
20 18 18 16 18 17 19 21 24 25 24 24 25 26 23 24 26 23 nan nan nan nan nan nan nan 17 nan 17 20 nan nan nan nan 22 nan nan nan nan nan 24 23 23
19 19 17 13 16 17 21 22 23 24 23 23 25 24 23 26 26 nan nan nan nan nan nan nan 18 18 nan nan nan nan nan nan nan nan nan nan 19 nan nan 24 26 22
21 21 23 19 18 19 22 21 21 23 22 23 23 22 24 25 23 21 nan nan nan nan nan nan nan nan nan nan nan nan nan nan nan nan nan nan 23 25 26 26 23 22
24 23 21 20 18 20 21 20 20 21 21 24 23 23 24 23 22 22 nan nan nan nan nan nan nan nan nan nan nan nan nan nan nan nan nan nan nan nan 24 23 23 24
26 23 20 22 21 22 21 21 21 22 22 23 23 24 24 23 24 24 22 nan nan nan nan nan nan nan nan nan nan nan nan 21 nan nan nan nan nan nan nan nan 25 25
26 23 22 24 25 23 21 21 23 22 22 24 24 26 26 26 25 27 nan nan nan nan nan nan nan nan nan nan nan nan 22 nan 21 nan 21 nan nan nan 24 nan nan nan
27 25 25 26 26 24 23 23 22 21 23 24 25 27 27 27 nan nan nan nan nan nan nan nan nan nan nan nan nan 23 21 21 nan 21 22 21 22 24 23 23 25 27
31 29 30 30 30 29 26 25 25 24 24 24 25 nan nan nan nan nan nan nan nan nan 30 32 nan nan nan nan nan nan 21 22 23 21 22 23 21 23 24 23 24 28
33 32 32 33 33 31 31 33 34 31 27 26 nan nan nan nan nan nan nan 28 nan 30 33 nan nan nan nan nan nan nan 29 26 23 23 23 23 25 24 25 23 23 27
32 31 31 32 31 32 32 nan 33 33 32 32 32 34 33 33 31 30 30 28 29 29 nan nan nan nan nan nan nan nan nan 28 25 24 24 25 26 26 23 24 23 21
32 31 33 33 31 31 31 nan nan nan nan 30 30 29 30 33 35 nan nan 34 33 33 nan nan nan nan nan nan nan nan nan nan nan 27 27 26 28 30 28 23 nan nan
29 31 33 32 31 29 29 nan nan nan nan nan 26 27 28 29 nan nan nan 35 33 33 nan nan nan nan nan nan nan nan nan nan nan 29 27 26 27 27 24 18 23 21
27 30 32 31 28 28 28 nan nan nan nan nan nan 25 24 24 26 nan nan nan nan nan nan nan nan nan nan nan nan nan nan nan 30 29 28 27 28 30 26 22 26 25
nan nan 27 26 25 26 27 nan nan nan nan nan nan 24 23 20 21 22 nan 24 nan nan nan nan nan nan nan nan nan nan nan nan nan 29 28 27 26 27 27 29 29 27
nan nan nan nan nan nan nan nan nan nan nan nan nan nan 23 22 22 22 21 22 23 24 26 25 25 nan nan nan nan nan nan nan nan 25 24 24 26 27 29 31 nan nan
nan nan nan nan nan nan nan nan nan nan nan 23 nan nan nan 25 26 26 24 24 nan nan nan 26 nan nan nan nan nan nan nan nan nan nan 22 24 26 28 30 nan nan nan
nan nan nan nan nan nan nan nan nan nan nan nan nan nan nan nan nan nan nan nan nan nan nan nan nan nan nan nan nan nan nan nan nan nan nan 26 nan 29 31 nan nan nan
nan nan nan nan nan nan nan nan nan nan nan nan nan nan nan nan nan nan nan nan nan nan nan nan nan nan nan nan nan nan nan nan nan nan nan nan nan nan nan nan nan nan
Wind_Direction
273 272 269 267 267 269 271 269 264 265 267 272 273 273 268 268 261 261 260 260 261 264 264 264 263 257 250 247 241 251 256 257 257 252 260 266 268 273 275 275 272 270
279 268 261 261 262 262 266 265 262 259 258 260 260 259 259 259 257 259 261 263 265 264 267 270 268 261 257 249 242 253 255 263 267 270 267 270 273 275 277 277 277 278
273 265 263 262 260 260 256 255 257 256 256 254 254 256 257 255 256 257 260 262 263 267 270 272 269 261 251 246 250 256 259 261 264 271 276 277 277 276 277 278 280 281
267 264 262 259 254 256 253 250 251 253 250 250 250 252 253 250 250 251 253 257 263 271 273 269 266 256 253 248 249 258 260 262 263 264 267 273 274 274 275 277 280 280
265 260 257 255 255 252 247 250 255 255 253 249 250 248 247 248 251 250 252 257 263 267 269 267 259 249 247 245 248 251 253 256 262 270 271 270 270 274 275 276 280 281
258 257 258 257 252 247 246 254 262 261 258 254 252 250 248 250 255 256 255 260 263 265 266 260 251 nan nan 242 246 249 nan 265 264 nan nan nan nan 275 280 274 272 272
250 250 248 252 245 243 250 261 263 261 262 260 257 251 251 253 258 nan nan nan 266 266 259 252 nan nan 245 248 251 nan 260 nan nan nan nan nan nan 271 269 272 274 270
241 238 235 224 242 247 256 263 264 265 265 264 259 257 254 255 258 255 nan nan nan nan nan 255 nan nan nan nan nan nan nan nan nan nan nan nan nan nan 264 265 271 280
260 259 242 213 244 249 258 259 261 262 260 257 257 258 255 253 254 253 nan nan nan nan nan nan nan 259 nan 256 257 nan nan nan nan 264 nan nan nan nan nan 268 269 271
267 268 260 239 253 252 252 254 257 259 260 258 257 255 255 252 253 nan nan nan nan nan nan nan 264 263 nan nan nan nan nan nan nan nan nan nan 268 nan nan 267 266 268
273 267 253 239 255 253 251 252 255 259 259 259 259 258 255 255 257 257 nan nan nan nan nan nan nan nan nan nan nan nan nan nan nan nan nan nan 251 260 266 268 276 277
269 265 258 246 252 258 259 254 254 255 253 254 259 262 259 258 259 257 nan nan nan nan nan nan nan nan nan nan nan nan nan nan nan nan nan nan nan nan 262 272 277 281
269 264 257 246 253 255 257 256 252 250 249 252 254 256 259 259 260 258 256 nan nan nan nan nan nan nan nan nan nan nan nan 266 nan nan nan nan nan nan nan nan 277 281
263 258 252 246 250 253 256 257 253 253 249 250 250 253 253 252 257 259 nan nan nan nan nan nan nan nan nan nan nan nan 263 nan 263 nan 256 nan nan nan 273 nan nan nan
258 254 254 251 253 256 257 257 258 254 253 253 250 252 252 252 nan nan nan nan nan nan nan nan nan nan nan nan nan 263 262 263 nan 259 257 255 257 266 273 278 281 277
256 252 251 252 249 246 246 254 253 249 255 256 255 nan nan nan nan nan nan nan nan nan 262 260 nan nan nan nan nan nan 255 259 257 256 258 257 261 268 275 278 280 280
259 255 247 243 247 249 247 244 241 237 244 254 nan nan nan nan nan nan nan 258 nan 256 258 nan nan nan nan nan nan nan 241 242 252 253 253 257 261 266 273 281 283 281
257 258 256 251 246 250 249 nan 243 244 245 246 247 247 246 245 249 255 257 258 262 261 nan nan nan nan nan nan nan nan nan 244 243 245 254 256 259 264 270 262 256 261
249 250 252 248 245 248 249 nan nan nan nan 243 247 249 250 251 253 nan nan 252 252 257 nan nan nan nan nan nan nan nan nan nan nan 245 243 247 253 256 252 260 nan nan
248 249 251 250 248 243 242 nan nan nan nan nan 246 250 253 255 nan nan nan 253 256 260 nan nan nan nan nan nan nan nan nan nan nan 245 245 247 260 267 268 265 260 262
245 250 252 252 246 243 241 nan nan nan nan nan nan 248 255 260 259 nan nan nan nan nan nan nan nan nan nan nan nan nan nan nan 255 254 253 253 255 264 266 265 270 266
nan nan 251 250 249 247 246 nan nan nan nan nan nan 254 254 253 255 258 nan 260 nan nan nan nan nan nan nan nan nan nan nan nan nan 260 259 254 249 256 257 257 256 264
nan nan nan nan nan nan nan nan nan nan nan nan nan nan 259 259 261 257 255 259 256 254 255 254 249 nan nan nan nan nan nan nan nan 246 249 247 246 247 251 254 nan nan
nan nan nan nan nan nan nan nan nan nan nan 241 nan nan nan 261 257 255 252 251 nan nan nan 255 nan nan nan nan nan nan nan nan nan nan 242 245 247 249 253 nan nan nan
nan nan nan nan nan nan nan nan nan nan nan nan nan nan nan nan nan nan nan nan nan nan nan nan nan nan nan nan nan nan nan nan nan nan nan 248 nan 254 261 nan nan nan
nan nan nan nan nan nan nan nan nan nan nan nan nan nan nan nan nan nan nan nan nan nan nan nan nan nan nan nan nan nan nan nan nan nan nan nan nan nan nan nan nan nan